Wind_Speed
83 78 81 73 65 42 33 30 34 44 54 59 65 72 78 89 94 98 95 95 92 87 102 117 113 107 101 95 95 93 86 81 80 80 80 83 79 70 67 64 59 58 44 38 41
86 84 82 79 72 44 31 27 26 32 44 51 59 67 75 83 90 98 101 97 93 94 89 111 114 111 106 99 98 97 90 87 87 85 85 85 80 76 71 68 63 58 51 49 58
85 86 81 79 69 46 30 20 22 26 36 45 53 60 69 78 88 99 98 96 92 92 89 94 116 116 110 105 100 95 95 94 95 92 89 88 85 77 69 69 68 61 54 51 57
83 88 83 78 68 45 27 16 18 22 29 38 46 53 62 74 84 89 95 96 95 92 93 89 103 116 114 109 105 100 96 100 99 94 90 91 89 81 74 78 71 61 58 53 56
85 88 87 73 72 43 25 14 15 21 27 33 40 47 56 67 73 87 93 96 97 96 94 95 92 107 116 112 111 108 104 99 106 95 92 91 90 83 78 83 76 68 60 57 42
84 89 81 66 71 41 23 10 13 18 24 30 37 44 50 62 69 79 86 91 96 98 97 93 94 92 106 117 117 110 111 109 105 100 101 97 90 86 84 84 80 74 71 71 73
84 87 77 66 65 40 18 11 11 13 18 24 31 37 45 54 65 72 80 86 89 98 98 98 95 97 95 106 118 122 117 118 110 100 98 101 93 89 92 89 84 78 76 77 75
88 90 82 68 59 38 15 15 15 15 16 19 23 28 35 47 54 63 71 79 84 92 101 102 100 97 98 97 105 123 124 117 111 111 104 97 96 95 96 93 87 84 83 83 81
92 91 76 63 62 38 14 21 20 20 21 23 26 30 34 40 48 56 62 68 78 88 97 103 104 100 100 102 102 106 119 120 116 115 112 98 98 104 98 93 87 88 85 86 85
94 93 80 64 57 37 16 26 25 25 28 30 28 29 33 40 44 48 54 61 71 82 92 99 104 104 105 104 102 99 100 115 122 115 116 104 101 102 98 94 92 93 93 90 87
95 88 81 72 51 40 17 26 29 30 32 33 31 34 33 35 42 50 55 57 62 75 87 92 101 104 103 103 101 101 99 99 112 123 120 116 113 104 101 98 98 99 95 92 91
95 91 84 69 58 42 16 26 34 33 35 33 34 33 34 33 37 43 50 58 66 71 73 80 88 98 106 109 108 108 103 103 106 116 130 118 114 113 104 99 98 101 98 98 98
96 92 77 71 66 44 15 25 38 35 37 35 34 30 30 28 30 36 41 45 53 63 70 78 87 94 99 108 115 116 110 107 109 114 114 119 118 111 113 108 100 99 100 100 100
96 89 80 71 70 47 15 25 41 37 37 35 32 29 26 25 27 30 33 36 39 44 52 61 72 88 98 100 107 112 112 114 114 113 99 99 106 121 113 111 108 103 104 102 99
98 91 84 76 69 50 18 25 42 39 36 36 32 28 25 21 23 24 23 22 22 27 35 46 57 70 88 99 101 103 110 117 115 108 101 101 97 101 117 114 112 113 106 102 101
101 93 85 78 71 46 18 26 41 40 35 34 31 27 22 20 19 17 14 10 10 13 15 25 40 58 75 94 104 104 106 109 113 111 107 103 97 96 98 103 117 115 113 109 109
99 95 81 78 67 41 18 27 42 42 36 36 33 25 20 18 17 11 6 6 7 10 9 11 18 35 55 78 97 108 110 104 105 105 101 104 99 99 96 94 98 103 99 102 112
98 93 81 70 57 33 18 28 44 45 38 38 32 29 22 19 14 10 6 4 5 5 10 11 14 19 31 50 75 97 108 107 97 94 97 103 101 100 102 91 85 82 92 94 91
102 91 85 69 50 24 19 31 46 44 41 40 36 31 27 23 17 11 7 5 5 5 7 10 14 17 23 33 49 71 90 106 108 99 93 98 102 105 98 91 91 88 88 83 79
99 94 85 65 40 16 22 39 48 48 46 44 40 36 29 25 20 17 13 7 8 10 6 7 14 18 20 23 31 46 70 90 104 106 98 99 98 103 97 95 92 90 86 85 85
96 91 84 55 29 12 26 47 53 53 50 47 44 37 32 28 24 20 16 14 7 9 9 10 11 15 19 21 26 32 43 60 83 100 103 105 97 99 98 93 93 91 90 90 94
96 85 77 43 23 12 28 51 58 56 53 48 45 42 36 31 26 22 16 15 15 10 10 12 13 12 21 25 27 26 33 46 62 77 94 104 102 92 96 95 92 93 94 95 94
95 82 72 36 20 14 30 55 60 58 53 50 50 46 42 36 31 26 19 16 15 17 16 9 15 14 14 16 22 27 35 38 44 54 72 91 100 103 105 94 96 96 96 94 95
90 79 66 36 22 18 31 58 62 61 58 56 50 46 43 42 37 30 26 25 22 14 11 13 14 18 18 20 18 22 28 33 34 42 55 70 89 101 103 99 98 96 97 95 93
89 71 52 39 21 22 33 54 65 65 63 54 48 46 46 44 42 37 33 31 27 21 19 19 16 17 19 21 23 24 25 26 30 37 45 57 70 86 93 96 95 101 100 98 97
87 65 44 31 21 25 44 58 70 66 64 59 51 49 49 46 42 41 40 37 33 31 28 24 21 22 21 18 22 25 27 27 26 30 39 48 59 67 79 86 94 97 98 100 100
77 52 37 23 19 29 40 43 69 68 65 58 52 50 50 48 43 43 43 40 37 35 34 33 31 32 28 24 24 24 26 28 30 32 35 38 45 56 66 78 87 94 96 97 103
Wind_Direction
351 348 345 343 340 328 302 276 250 239 231 226 223 219 216 214 212 210 209 210 210 214 212 211 210 211 212 213 217 221 225 220 220 222 222 225 223 218 222 226 228 232 224 221 242
351 351 346 348 343 333 315 279 255 239 229 224 219 216 213 213 210 208 209 209 210 212 213 211 212 211 212 212 214 218 222 225 225 224 225 226 225 217 222 226 227 229 223 220 212
351 351 350 349 344 337 323 279 250 237 229 220 216 214 211 211 207 208 208 209 210 212 213 213 212 213 211 213 212 215 219 222 225 224 225 227 226 222 221 229 228 226 227 224 233
350 350 351 352 346 339 325 283 244 226 220 213 210 210 211 209 208 207 207 209 210 212 213 214 215 214 214 214 215 212 217 220 226 229 226 229 224 222 220 230 232 229 227 231 240
351 350 350 350 350 340 325 285 244 220 214 208 204 205 206 206 206 207 206 208 210 212 212 213 214 215 215 216 216 216 215 220 224 225 228 231 228 221 223 228 227 227 229 231 216
348 348 350 352 354 340 322 275 238 214 206 205 203 204 206 207 208 208 207 210 212 213 214 214 216 215 216 217 218 216 218 217 222 220 226 230 232 224 227 231 226 225 225 226 225
346 347 351 351 353 342 313 247 205 196 195 196 198 201 205 207 210 210 210 212 214 215 215 214 215 217 217 218 219 220 218 218 219 221 225 229 232 229 232 231 228 227 229 234 235
347 349 350 346 350 342 298 221 197 191 190 189 194 200 203 207 209 212 213 215 217 218 217 217 216 216 218 218 219 221 220 219 220 220 222 228 229 230 233 234 230 228 231 234 236
347 348 350 350 353 342 289 215 204 200 198 198 199 202 207 209 212 215 219 221 221 221 220 219 218 217 218 220 220 222 221 221 220 221 220 222 227 232 232 237 236 235 236 239 239
346 347 349 349 350 340 288 217 208 204 201 199 198 208 213 217 221 225 228 229 228 226 223 222 222 220 220 220 222 224 224 223 222 223 224 220 225 228 231 233 236 239 239 242 243
347 347 349 350 347 342 286 219 210 203 204 205 208 215 221 226 229 234 238 240 237 232 228 226 225 224 224 223 223 224 224 225 225 225 223 222 225 226 229 230 235 239 241 245 246
347 344 348 350 342 342 281 228 207 205 207 209 214 220 227 233 236 239 240 241 241 240 233 227 227 227 225 224 224 223 221 223 225 227 223 221 223 225 228 230 232 237 240 242 243
344 345 346 348 347 335 285 227 208 206 207 210 217 226 233 241 243 249 250 246 242 241 236 230 224 221 224 225 223 223 222 223 224 228 225 225 227 226 227 230 233 235 237 240 245
343 346 346 347 347 332 273 221 209 206 206 210 216 228 235 239 243 252 253 242 239 237 236 233 227 222 221 220 223 224 224 225 224 227 227 225 228 228 227 229 231 234 236 239 243
343 344 344 347 343 333 272 216 208 205 204 209 216 230 235 240 243 252 254 245 240 223 222 223 220 219 220 220 220 221 222 225 226 226 225 226 226 230 229 229 232 235 235 238 240
341 341 341 341 342 331 267 212 207 202 201 206 209 219 233 237 241 248 263 251 246 220 208 215 217 216 216 217 218 221 221 222 226 226 224 226 225 230 231 229 231 235 238 240 241
339 338 341 339 340 326 257 209 203 201 197 203 208 207 225 234 233 240 254 269 228 209 189 187 199 213 216 217 217 219 222 223 224 225 225 228 227 230 231 231 233 235 240 242 244
337 337 340 340 335 320 241 200 198 199 196 204 206 208 214 222 228 227 222 221 222 233 220 214 192 199 211 216 218 219 221 224 225 225 224 227 228 232 232 232 234 233 238 241 242
337 340 341 339 330 312 223 190 194 198 201 204 202 207 208 213 224 206 230 220 219 222 226 225 216 200 198 206 214 217 219 221 223 225 224 227 227 231 231 230 232 233 235 239 238
338 337 338 336 326 296 207 188 191 199 200 201 205 203 206 206 209 214 196 226 229 223 228 226 229 214 205 209 210 213 217 219 222 223 225 228 228 231 232 233 233 235 237 237 238
340 341 338 333 319 268 203 191 193 200 203 203 204 202 203 207 209 212 214 196 210 225 213 213 211 218 216 207 210 209 214 220 224 223 221 227 231 231 231 233 235 235 236 236 236
340 342 340 328 313 244 201 194 196 200 203 202 203 205 199 207 209 217 214 204 189 237 227 207 208 207 213 213 213 214 217 221 221 222 224 228 231 233 234 233 236 239 240 238 240
341 340 338 327 307 232 194 196 199 202 206 206 202 204 201 203 205 211 213 201 219 198 206 211 217 216 208 212 219 211 212 215 220 225 227 227 229 231 233 232 235 238 241 243 244
339 340 334 328 292 225 194 196 199 203 205 207 206 205 211 202 204 208 207 209 214 223 211 204 211 229 222 213 220 225 227 222 220 224 228 228 230 232 234 234 236 240 243 247 248
340 336 329 318 278 225 191 196 199 202 210 206 207 209 211 209 204 208 212 215 215 218 222 220 217 221 229 226 224 220 224 228 226 224 229 231 235 233 236 237 238 239 245 248 250
337 332 324 311 269 217 198 196 197 201 209 210 205 211 208 217 207 211 213 216 218 219 219 222 224 222 227 225 229 229 227 229 229 231 232 233 238 238 238 238 239 242 244 247 251
333 329 321 303 251 212 205 201 197 200 206 209 208 212 214 215 213 219 217 217 220 223 225 222 228 226 228 228 232 233 234 234 233 233 238 242 244 243 240 241 243 244 246 250 253
Height
10659 10642 10625 10607 10588 10578 10571 10568 10568 10573 10581 10591 10600 10611 10623 10638 10654 10675 10692 10696 10720 10728 10744 10758 10772 10789 10801 10816 10826 10833 10845 10859 10866 10870 10874 10865 10878 10896 10903 10910 10920 10928 10945 10953 10956
10650 10633 10615 10597 10577 10566 10559 10557 10556 10560 10567 10575 10585 10597 10609 10623 10640 10658 10668 10687 10702 10713 10732 10748 10765 10775 10790 10800 10810 10823 10837 10848 10850 10853 10859 10865 10875 10886 10895 10903 10913 10926 10936 10938 10925
10643 10626 10606 10589 10570 10558 10552 10549 10549 10551 10557 10565 10575 10586 10598 10611 10625 10636 10662 10679 10695 10707 10720 10735 10749 10762 10776 10785 10799 10814 10827 10830 10830 10839 10849 10853 10867 10883 10901 10900 10901 10918 10932 10937 10934
10637 10621 10602 10584 10566 10554 10547 10546 10546 10547 10552 10559 10567 10578 10589 10600 10616 10635 10653 10667 10680 10695 10709 10722 10733 10748 10766 10779 10785 10800 10808 10816 10817 10831 10845 10843 10862 10875 10887 10882 10896 10914 10927 10933 10930
10630 10615 10597 10580 10563 10550 10545 10543 10544 10545 10549 10556 10564 10573 10583 10596 10614 10617 10635 10652 10665 10680 10693 10705 10718 10732 10749 10758 10768 10787 10793 10800 10799 10826 10835 10836 10849 10866 10875 10869 10884 10901 10919 10929 10934
10624 10610 10593 10575 10562 10550 10545 10541 10543 10544 10548 10554 10561 10570 10580 10590 10605 10615 10628 10640 10655 10668 10680 10696 10709 10719 10728 10741 10753 10768 10770 10779 10784 10811 10817 10825 10840 10858 10860 10859 10876 10887 10897 10903 10908
10618 10605 10590 10574 10560 10549 10545 10544 10544 10546 10549 10554 10560 10568 10576 10588 10594 10609 10622 10632 10644 10655 10668 10680 10691 10702 10716 10727 10740 10744 10747 10763 10782 10801 10811 10818 10832 10848 10839 10847 10865 10879 10887 10891 10896
10612 10598 10585 10571 10558 10547 10544 10545 10545 10548 10551 10555 10560 10566 10575 10583 10594 10604 10614 10622 10631 10641 10652 10663 10675 10689 10701 10710 10711 10719 10736 10749 10776 10782 10794 10810 10825 10824 10821 10836 10852 10865 10866 10867 10878
10605 10592 10578 10566 10554 10544 10541 10543 10545 10548 10552 10557 10561 10567 10572 10581 10590 10598 10604 10612 10620 10627 10637 10648 10658 10676 10682 10691 10699 10703 10727 10748 10750 10766 10776 10800 10804 10804 10816 10832 10846 10847 10856 10856 10863
10597 10584 10572 10561 10547 10540 10536 10538 10542 10546 10551 10556 10561 10566 10572 10577 10584 10592 10597 10602 10607 10614 10624 10636 10647 10658 10666 10674 10692 10708 10722 10732 10745 10757 10766 10789 10787 10791 10811 10822 10830 10828 10833 10840 10849
10591 10576 10566 10555 10543 10534 10529 10531 10537 10542 10548 10553 10558 10561 10568 10574 10579 10583 10587 10590 10594 10600 10611 10620 10627 10646 10660 10672 10685 10693 10708 10718 10730 10730 10744 10762 10769 10782 10794 10807 10813 10816 10826 10827 10835
10583 10570 10557 10547 10537 10526 10521 10524 10529 10535 10542 10548 10552 10557 10560 10567 10570 10572 10575 10576 10577 10582 10593 10604 10617 10628 10633 10646 10662 10670 10685 10696 10701 10697 10713 10743 10754 10769 10781 10793 10799 10803 10811 10814 10817
10575 10561 10547 10537 10529 10518 10513 10515 10522 10527 10534 10540 10546 10550 10555 10557 10559 10560 10560 10559 10560 10560 10566 10575 10585 10596 10609 10623 10634 10646 10665 10678 10680 10675 10718 10738 10740 10758 10768 10779 10785 10793 10797 10800 10803
10566 10551 10538 10528 10519 10510 10503 10505 10514 10519 10526 10534 10539 10544 10547 10549 10550 10550 10549 10548 10547 10546 10547 10553 10565 10578 10588 10602 10618 10634 10653 10658 10664 10669 10708 10719 10727 10739 10751 10762 10771 10777 10781 10789 10792
10557 10542 10529 10518 10510 10500 10496 10495 10504 10512 10520 10527 10533 10537 10540 10542 10543 10542 10540 10539 10538 10536 10536 10539 10545 10557 10572 10589 10602 10618 10627 10635 10653 10674 10690 10699 10714 10726 10735 10753 10757 10759 10767 10778 10782
10547 10533 10519 10507 10500 10491 10486 10487 10495 10507 10513 10520 10525 10530 10533 10535 10536 10535 10534 10532 10532 10531 10532 10533 10537 10545 10552 10566 10584 10600 10609 10624 10632 10657 10674 10688 10704 10709 10719 10736 10729 10746 10761 10761 10767
10537 10524 10509 10497 10487 10479 10476 10480 10488 10500 10506 10512 10516 10523 10527 10529 10530 10530 10530 10529 10528 10530 10529 10530 10533 10538 10545 10556 10568 10582 10596 10610 10625 10646 10675 10678 10692 10694 10704 10713 10726 10746 10746 10742 10753
10526 10512 10498 10485 10473 10467 10466 10471 10482 10491 10498 10504 10512 10517 10522 10524 10526 10527 10528 10528 10529 10529 10530 10531 10533 10537 10543 10550 10561 10574 10587 10604 10627 10637 10652 10658 10676 10677 10682 10712 10724 10734 10720 10730 10739
10513 10498 10485 10474 10462 10456 10458 10464 10474 10484 10491 10497 10503 10510 10515 10519 10522 10524 10526 10527 10528 10530 10531 10532 10534 10537 10541 10545 10553 10567 10584 10595 10604 10625 10639 10650 10657 10656 10679 10698 10703 10712 10712 10719 10728
10503 10483 10470 10459 10450 10448 10451 10457 10466 10474 10481 10490 10498 10503 10510 10514 10518 10520 10523 10527 10528 10530 10531 10533 10535 10537 10541 10547 10553 10562 10564 10579 10595 10610 10630 10629 10649 10650 10667 10679 10692 10701 10705 10710 10714
10489 10472 10454 10443 10439 10439 10443 10450 10457 10464 10474 10482 10490 10499 10505 10510 10514 10517 10520 10524 10527 10529 10531 10533 10536 10540 10544 10548 10551 10558 10565 10577 10589 10601 10617 10619 10634 10641 10657 10671 10675 10686 10691 10697 10697
10478 10460 10444 10433 10428 10430 10436 10443 10449 10456 10463 10475 10484 10491 10500 10506 10510 10514 10519 10522 10524 10529 10531 10534 10537 10540 10542 10546 10550 10557 10565 10570 10579 10590 10608 10614 10626 10644 10648 10658 10664 10670 10675 10684 10685
10466 10449 10433 10425 10422 10422 10428 10436 10443 10449 10458 10468 10475 10484 10492 10500 10506 10512 10517 10521 10524 10526 10530 10535 10538 10539 10543 10548 10554 10558 10561 10565 10574 10588 10602 10609 10616 10621 10626 10646 10651 10655 10662 10669 10671
10452 10436 10420 10417 10414 10414 10418 10429 10436 10444 10451 10460 10471 10480 10485 10494 10502 10510 10515 10517 10521 10526 10530 10534 10537 10539 10542 10548 10552 10558 10562 10567 10576 10582 10588 10596 10600 10605 10616 10629 10640 10647 10648 10654 10662
10441 10424 10410 10402 10403 10404 10410 10421 10426 10434 10444 10457 10469 10476 10482 10489 10497 10504 10511 10516 10521 10525 10528 10532 10535 10539 10542 10546 10550 10555 10560 10566 10572 10578 10582 10587 10588 10597 10608 10621 10634 10632 10637 10642 10644
10422 10409 10399 10392 10393 10397 10399 10401 10414 10427 10438 10451 10463 10471 10480 10480 10492 10498 10506 10511 10517 10522 10526 10530 10535 10538 10541 10546 10548 10553 10557 10561 10567 10572 10576 10581 10581 10595 10601 10610 10612 10620 10625 10627 10631
10404 10393 10386 10383 10384 10388 10391 10401 10411 10421 10432 10445 10457 10464 10473 10481 10490 10494 10499 10506 10512 10517 10522 10527 10530 10534 10537 10542 10545 10550 10555 10559 10563 10566 10570 10573 10575 10585 10592 10593 10601 10606 10612 10616 10613